Location: Pitton
(51.0667°N, 1.7000°W)
Time: 13:19:31
(UTC+00:00)

Cosmos 1707 - Pass Details

Date: 17 September 2019
Orbit: 517 x 530 km, 82.5° (Epoch: 14 October)

Event Time Altitude Azimuth Distance (km) Brightness Sun altitude
Rises 20:13:33 0° 342° (NNW) 2,681 7.0 -18.3°
Reaches altitude 10° 20:15:48 10° 334° (NNW) 1,788 6.2 -18.6°
Maximum altitude 20:19:25 36° 268° (W) 860 4.3 -19.1°
Drops below altitude 10° 20:23:00 10° 201° (SSW) 1,776 5.3 -19.6°
Enters shadow 20:23:41 - 198° (SSW) 2,040 5.6 -19.7°
